Volver al catálogo

EUTE 16C

SESAT 1

ActivoComunicacionesGEO
NORAD 26243·PAYLOAD·🇪🇺 EU

Lanzado Apr 17, 2000 desde Baikonur Cosmodrome

Loading…

TLE

ActualizadoSource: Space-Track

Época: Sep 14, 2026, 13:21 UTC

1 26243U 00019A   26257.55638767  .00000002  00000-0  00000-0 0  9998
2 26243  11.0680  45.2202 0005559 158.6101 203.8200  0.98954699 96230

Sigue EUTE 16C en tiempo real con AllMySat

Download on the App Store